Location: Esp�s Alto
(42.4476°N, 0.5876°E)
Time: 11:24:58
(UTC+00:00)

ATLAS 3B R/B - Pass Details

Date: 22 October 2019
Orbit: 1029 x 1166 km, 63.8° (Epoch: 10 November)

Event Time Altitude Azimuth Distance (km) Brightness Sun altitude
Exits shadow 03:50:38 40° 328° (NNW) 1,497 3.2 -27.8°
Maximum altitude 03:53:20 87° 55° (NE) 1,062 2.6 -27.3°
Drops below altitude 10° 04:00:13 10° 145° (SE) 2,910 5.3 -26.1°
Sets 04:02:54 0° 146° (SE) 3,883 6.0 -25.6°
